Location: Unspecified
(35.6423°N, 0.0000°E)
Time: 13:49:49
(UTC+00:00)

S3M - Visible Passes

Search period start: 04 April 2026 00:00
Search period end: 14 April 2026 00:00
Orbit: 949 x 1003 km, 83.0° (Epoch: 29 March)

Date Brightness Start Highest point End Pass type
(mag) Time Alt. Az. Time Alt. Az. Time Alt. Az.
4 Apr 6.9 05:00:07 10° SE 05:04:38 21° E 05:09:09 10° NE visible
7 Apr 6.9 04:31:52 10° ESE 04:35:51 17° E 04:39:49 10° NE visible
8 Apr 6.0 04:55:22 10° SSE 05:00:57 33° E 05:06:32 10° NNE visible
10 Apr 7.0 04:03:48 10° ESE 04:07:04 15° E 04:10:18 10° NE visible
11 Apr 6.2 04:26:51 10° SE 04:32:07 28° E 04:37:24 10° NNE visible
12 Apr 5.0 04:51:12 10° SSE 04:57:21 53° E 05:03:30 10° NNE visible
13 Apr 7.0 03:36:05 10° E 03:38:16 12° E 03:40:29 10° ENE visible
